User: anonymous   Login
Location: The Saddle
(36.8333°N, 80.3417°W)
Time: 15:40:32
(UTC-04:00)
Language:

Transit 2A - Orbit

View from above orbital plane
View from above orbital plane
View from above satellite
View from above satellite

Ground track
Ground track

The orbit data is extracted from the following two-line orbital elements,

1 00045U 60007A   24150.44314357  .00000338  00000-0  10914-3 0  9997
2 00045  66.6920 179.0698 0254837 343.9201  15.3914 14.34712195272585
Epoch (UTC): 29 May 2024 10:38:07
Eccentricity: 0.0254837
inclination: 66.6920°
perigee height: 594 km
apogee height: 958 km
right ascension of ascending node: 179.0698°
argument of perigee: 343.9201°
revolutions per day: 14.34712195
mean anomaly at epoch: 15.3914°
orbit number at epoch: 27258

The dashed part of the orbit path shows where the satellite is in the earth's shadow,  

DLR